Main page
METAR-TAF:

METAR-TAF

Airports :

RAF Topcliffe

Topcliffe, England

latitude: 54-12N, longitude: 001-23W, elevation: 28 m

Current weather observation

The report was made 59 minutes ago, at 03:20 UTC
Wind 3 kt from the Southeast
Temperature 11°C
Humidity 94%
Pressure 1014 hPa
Visibility: 7000 m
mist,

METAR: EGXZ 210320Z AUTO 14003KT 7000 BR FEW170/// 11/10 Q1014

Time: 05:19 (04:19 UTC)


TAF: missing

Weather observations and forecasts of more than 4000 airports (METAR and TAF reports).

The available stations are represented by yellow and red dots on the map.

Hover mouse over dot to see the name of the station.

Then click to see weather observations and forecasts.

To change the map : click on the green buttons with a black cross to zoom in, on the green button with a dash to zoom out, or on the green arrows for adjacent maps.


METAR-TAF: